Time,TemperatureF,DewpointF,PressureIn,WindDirection,WindDirectionDegrees,WindSpeedMPH,WindSpeedGustMPH,Humidity,HourlyPrecipIn,Conditions,Clouds,dailyrainin,SoftwareType,DateUTC
2013-02-26 00:00:00,40.0,33.0,30.60,North,-999,-999.0,-999.0,76,-99.99,,,-99.99,,2013-02-26 00:00:00,
2013-02-26 00:41:00,40.0,33.0,30.60,North,-999,-999.0,-999.0,76,-99.99,,,-99.99,,2013-02-26 00:41:00,
2013-02-26 00:51:00,40.0,33.0,30.60,North,-999,-999.0,-999.0,76,-99.99,,,-99.99,,2013-02-26 00:51:00,
2013-02-26 01:00:00,41.0,35.0,30.60,North,-999,-999.0,-999.0,78,-99.99,,,-99.99,,2013-02-26 01:00:00,
2013-02-26 01:41:00,41.0,35.0,30.60,North,-999,-999.0,-999.0,78,-99.99,,,-99.99,,2013-02-26 01:41:00,
2013-02-26 01:51:00,41.0,35.0,30.60,North,-999,-999.0,-999.0,78,-99.99,,,-99.99,,2013-02-26 01:51:00,
2013-02-26 02:00:00,39.0,34.0,30.62,North,-999,-999.0,-999.0,81,-99.99,,,-99.99,,2013-02-26 02:00:00,
2013-02-26 02:41:00,39.0,34.0,30.62,North,-999,-999.0,-999.0,81,-99.99,,,-99.99,,2013-02-26 02:41:00,
2013-02-26 02:52:00,39.0,34.0,30.62,North,-999,-999.0,-999.0,81,-99.99,,,-99.99,,2013-02-26 02:52:00,
2013-02-26 03:00:00,39.0,35.0,30.62,North,-999,-999.0,-999.0,82,-99.99,,,-99.99,,2013-02-26 03:00:00,
2013-02-26 03:41:00,39.0,35.0,30.62,North,-999,-999.0,-999.0,82,-99.99,,,-99.99,,2013-02-26 03:41:00,
2013-02-26 03:51:00,39.0,35.0,30.62,North,-999,-999.0,-999.0,82,-99.99,,,-99.99,,2013-02-26 03:51:00,
2013-02-26 04:00:00,40.0,35.0,30.58,North,-999,-999.0,-999.0,81,-99.99,,,-99.99,,2013-02-26 04:00:00,
2013-02-26 04:42:00,40.0,35.0,30.58,North,-999,-999.0,-999.0,81,-99.99,,,-99.99,,2013-02-26 04:42:00,
2013-02-26 04:51:00,40.0,35.0,30.58,North,-999,-999.0,-999.0,81,-99.99,,,-99.99,,2013-02-26 04:51:00,
2013-02-26 05:00:00,41.0,34.0,30.59,North,-999,-999.0,-999.0,75,-99.99,,,-99.99,,2013-02-26 05:00:00,
2013-02-26 05:42:00,41.0,34.0,30.59,North,-999,-999.0,-999.0,75,-99.99,,,-99.99,,2013-02-26 05:42:00,
2013-02-26 05:52:00,41.0,34.0,30.59,North,-999,-999.0,-999.0,75,-99.99,,,-99.99,,2013-02-26 05:52:00,
2013-02-26 06:00:00,37.0,29.0,30.62,North,-999,-999.0,-999.0,73,-99.99,,,-99.99,,2013-02-26 06:00:00,
2013-02-26 06:41:00,37.0,29.0,30.62,North,-999,-999.0,-999.0,73,-99.99,,,-99.99,,2013-02-26 06:41:00,
2013-02-26 06:51:00,37.0,29.0,30.62,North,-999,-999.0,-999.0,73,-99.99,,,-99.99,,2013-02-26 06:51:00,
2013-02-26 07:00:00,36.0,28.0,30.63,North,-999,-999.0,-999.0,71,-99.99,,,-99.99,,2013-02-26 07:00:00,
2013-02-26 07:41:00,36.0,28.0,30.63,North,-999,-999.0,-999.0,71,-99.99,,,-99.99,,2013-02-26 07:41:00,
2013-02-26 07:51:00,36.0,28.0,30.63,North,-999,-999.0,-999.0,71,-99.99,,,-99.99,,2013-02-26 07:51:00,
2013-02-26 08:00:00,36.0,28.0,30.64,North,-999,-999.0,-999.0,73,-99.99,,,-99.99,,2013-02-26 08:00:00,
2013-02-26 08:41:00,36.0,28.0,30.64,North,-999,-999.0,-999.0,73,-99.99,,,-99.99,,2013-02-26 08:41:00,
2013-02-26 08:51:00,36.0,28.0,30.64,North,-999,-999.0,-999.0,73,-99.99,,,-99.99,,2013-02-26 08:51:00,
2013-02-26 10:00:00,44.0,34.0,30.65,North,-999,-999.0,-999.0,69,-99.99,,,-99.99,,2013-02-26 10:00:00,
2013-02-26 10:41:00,44.0,34.0,30.65,North,-999,-999.0,-999.0,69,-99.99,,,-99.99,,2013-02-26 10:41:00,
2013-02-26 10:51:00,44.0,34.0,30.65,North,-999,-999.0,-999.0,69,-99.99,,,-99.99,,2013-02-26 10:51:00,
2013-02-26 11:00:00,44.0,34.0,30.65,North,-999,-999.0,-999.0,68,-99.99,,,-99.99,,2013-02-26 11:00:00,
2013-02-26 11:41:00,44.0,34.0,30.65,North,-999,-999.0,-999.0,68,-99.99,,,-99.99,,2013-02-26 11:41:00,
2013-02-26 11:52:00,44.0,34.0,30.65,North,-999,-999.0,-999.0,68,-99.99,,,-99.99,,2013-02-26 11:52:00,